• In France
  • List of Countries
  • For 7 days
  • Water Temperature
  • Satellite Maps
  • Weather Map
  • Weather Widgets
  • user-avatar
    Login

    Hourly Weather Kahabroso

    Today, 22 August, Wednesday

    Time Temperature Precipitation Wind Pressure Humidity
    00:00 +12°C° 0 mm 2 mps 616 mmHg 71%
    01:00 +12°C° 0 mm 2 mps 616 mmHg 68%
    02:00 +12°C° 0 mm 2 mps 615 mmHg 65%
    03:00 +10°C° 0 mm 2 mps 615 mmHg 62%
    04:00 +12°C° 0 mm 2 mps 615 mmHg 61%
    05:00 +12°C° 0 mm 2 mps 615 mmHg 61%
    06:00 +12°C° 0 mm 2 mps 616 mmHg 60%
    07:00 +14°C° 0 mm 2 mps 616 mmHg 55%
    08:00 +17°C° 0 mm 2 mps 617 mmHg 51%
    09:00 +20°C° 0 mm 1 mps 618 mmHg 46%
    10:00 +19°C° 0 mm 2 mps 618 mmHg 46%
    11:00 +20°C° 0 mm 2 mps 618 mmHg 46%
    12:00 +21°C° 0 mm 2 mps 619 mmHg 45%
    13:00 +21°C° 0.4 mm 2 mps 618 mmHg 48%
    14:00 +20°C° 0.4 mm 2 mps 618 mmHg 51%
    15:00 +20°C° 0.4 mm 2 mps 618 mmHg 53%
    16:00 +19°C° 0.4 mm 2 mps 617 mmHg 58%
    17:00 +18°C° 0.4 mm 2 mps 617 mmHg 63%
    18:00 +18°C° 0.4 mm 1 mps 617 mmHg 68%
    19:00 +16°C° 0.2 mm 1 mps 617 mmHg 71%
    20:00 +15°C° 0.2 mm 2 mps 617 mmHg 74%
    21:00 +14°C° 0.2 mm 2 mps 616 mmHg 77%
    22:00 +14°C° 0.1 mm 2 mps 616 mmHg 77%
    23:00 +13°C° 0.1 mm 2 mps 616 mmHg 77%

    Tomorrow, 23 August, Thursday

    Time Temperature Precipitation Wind Pressure Humidity
    00:00 +13°C° 0.1 mm 2 mps 616 mmHg 77%
    01:00 +13°C° 0 mm 2 mps 616 mmHg 77%
    02:00 +12°C° 0 mm 2 mps 616 mmHg 77%
    03:00 +12°C° 0 mm 2 mps 616 mmHg 76%
    04:00 +12°C° 0 mm 2 mps 616 mmHg 76%
    05:00 +12°C° 0 mm 2 mps 616 mmHg 75%
    06:00 +12°C° 0 mm 2 mps 617 mmHg 74%
    07:00 +14°C° 0 mm 2 mps 617 mmHg 66%
    08:00 +16°C° 0 mm 2 mps 618 mmHg 58%
    09:00 +19°C° 0 mm 2 mps 619 mmHg 51%
    10:00 +19°C° 0 mm 2 mps 620 mmHg 48%
    11:00 +20°C° 0 mm 3 mps 620 mmHg 46%
    12:00 +21°C° 0 mm 3 mps 620 mmHg 43%
    13:00 +21°C° 0 mm 3 mps 620 mmHg 44%
    14:00 +20°C° 0 mm 3 mps 620 mmHg 45%
    15:00 +20°C° 0 mm 3 mps 620 mmHg 46%
    16:00 +19°C° 0 mm 2 mps 619 mmHg 52%
    17:00 +18°C° 0 mm 2 mps 619 mmHg 57%
    18:00 +17°C° 0 mm 2 mps 618 mmHg 63%
    19:00 +15°C° 0 mm 2 mps 618 mmHg 68%
    20:00 +14°C° 0 mm 1 mps 618 mmHg 73%
    21:00 +13°C° 0 mm 1 mps 618 mmHg 79%
    22:00 +12°C° 0 mm 1 mps 618 mmHg 79%
    23:00 +12°C° 0 mm 2 mps 618 mmHg 79%

    Day after tomorrow, 24 August, Friday

    Time Temperature Precipitation Wind Pressure Humidity
    00:00 +12°C° 0 mm 2 mps 618 mmHg 79%
    01:00 +12°C° 0 mm 2 mps 617 mmHg 78%
    02:00 +10°C° 0 mm 2 mps 617 mmHg 78%
    03:00 +10°C° 0 mm 2 mps 617 mmHg 77%
    04:00 +10°C° 0 mm 2 mps 617 mmHg 77%
    05:00 +12°C° 0 mm 2 mps 617 mmHg 76%
    06:00 +12°C° 0 mm 2 mps 617 mmHg 76%
    07:00 +14°C° 0 mm 2 mps 618 mmHg 70%
    08:00 +16°C° 0 mm 3 mps 619 mmHg 65%
    09:00 +18°C° 0 mm 3 mps 620 mmHg 59%
    10:00 +19°C° 0 mm 3 mps 620 mmHg 58%
    11:00 +19°C° 0 mm 4 mps 620 mmHg 58%
    12:00 +20°C° 0 mm 4 mps 620 mmHg 57%
    13:00 +19°C° 0.1 mm 4 mps 619 mmHg 58%
    14:00 +19°C° 0.1 mm 4 mps 619 mmHg 60%
    15:00 +19°C° 0.1 mm 4 mps 619 mmHg 61%
    16:00 +18°C° 0.3 mm 4 mps 618 mmHg 66%
    17:00 +17°C° 0.3 mm 3 mps 618 mmHg 70%
    18:00 +16°C° 0.3 mm 3 mps 617 mmHg 74%
    19:00 +15°C° 0.1 mm 2 mps 617 mmHg 77%
    20:00 +14°C° 0.1 mm 2 mps 617 mmHg 79%
    21:00 +12°C° 0.1 mm 2 mps 617 mmHg 82%
    22:00 +12°C° 0 mm 2 mps 617 mmHg 80%
    23:00 +12°C° 0 mm 2 mps 616 mmHg 78%

    25 August, Saturday

    Time Temperature Precipitation Wind Pressure Humidity
    00:00 +12°C° 0 mm 2 mps 616 mmHg 76%
    01:00 +10°C° 0 mm 2 mps 616 mmHg 75%
    02:00 +10°C° 0 mm 2 mps 616 mmHg 75%
    03:00 +10°C° 0 mm 2 mps 615 mmHg 74%
    04:00 +11°C° 0 mm 1 mps 615 mmHg 73%
    05:00 +11°C° 0 mm 1 mps 615 mmHg 72%
    06:00 +12°C° 0 mm 1 mps 616 mmHg 71%
    07:00 +14°C° 0 mm 2 mps 616 mmHg 64%
    08:00 +16°C° 0 mm 2 mps 617 mmHg 57%
    09:00 +18°C° 0 mm 2 mps 618 mmHg 50%
    10:00 +19°C° 0.1 mm 3 mps 618 mmHg 49%
    11:00 +20°C° 0.1 mm 3 mps 619 mmHg 48%
    12:00 +21°C° 0.1 mm 4 mps 619 mmHg 46%
    13:00 +20°C° 0.2 mm 4 mps 619 mmHg 47%
    14:00 +20°C° 0.2 mm 4 mps 618 mmHg 48%
    15:00 +20°C° 0.2 mm 4 mps 618 mmHg 50%
    16:00 +19°C° 0.1 mm 4 mps 618 mmHg 55%
    17:00 +18°C° 0.1 mm 3 mps 617 mmHg 60%
    18:00 +16°C° 0.1 mm 3 mps 617 mmHg 65%
    19:00 +14°C° 0.1 mm 3 mps 617 mmHg 69%
    20:00 +14°C° 0.1 mm 2 mps 616 mmHg 73%
    21:00 +13°C° 0.1 mm 2 mps 616 mmHg 77%
    22:00 +12°C° 0 mm 2 mps 616 mmHg 76%
    23:00 +12°C° 0 mm 2 mps 616 mmHg 75%

    26 August, Sunday

    Time Temperature Precipitation Wind Pressure Humidity
    00:00 +12°C° 0 mm 2 mps 615 mmHg 74%
    01:00 +12°C° 0 mm 2 mps 615 mmHg 72%
    02:00 +12°C° 0 mm 2 mps 615 mmHg 70%
    03:00 +12°C° 0 mm 2 mps 615 mmHg 68%
    04:00 +12°C° 0 mm 2 mps 615 mmHg 65%
    05:00 +12°C° 0 mm 2 mps 615 mmHg 63%
    06:00 +12°C° 0 mm 2 mps 615 mmHg 61%
    07:00 +15°C° 0 mm 2 mps 616 mmHg 53%
    08:00 +17°C° 0 mm 2 mps 617 mmHg 46%
    09:00 +20°C° 0 mm 3 mps 617 mmHg 38%
    10:00 +21°C° 0 mm 3 mps 617 mmHg 37%
    11:00 +22°C° 0 mm 3 mps 617 mmHg 36%
    12:00 +23°C° 0 mm 4 mps 617 mmHg 35%
    13:00 +22°C° 0 mm 4 mps 617 mmHg 37%
    14:00 +22°C° 0 mm 4 mps 617 mmHg 39%
    15:00 +22°C° 0 mm 4 mps 616 mmHg 41%
    16:00 +20°C° 0 mm 4 mps 616 mmHg 47%
    17:00 +19°C° 0 mm 3 mps 615 mmHg 54%
    18:00 +17°C° 0 mm 3 mps 615 mmHg 60%
    19:00 +16°C° 0 mm 2 mps 614 mmHg 64%
    20:00 +15°C° 0 mm 2 mps 614 mmHg 67%
    21:00 +13°C° 0 mm 2 mps 614 mmHg 71%
    22:00 +13°C° 0.1 mm 2 mps 614 mmHg 69%
    23:00 +13°C° 0.1 mm 2 mps 613 mmHg 67%

    27 August, Monday

    Time Temperature Precipitation Wind Pressure Humidity
    00:00 +13°C° 0.1 mm 2 mps 613 mmHg 65%
    01:00 +12°C° 0 mm 2 mps 613 mmHg 63%
    02:00 +12°C° 0 mm 2 mps 613 mmHg 61%
    03:00 +12°C° 0 mm 2 mps 613 mmHg 60%
    04:00 +12°C° 0 mm 2 mps 613 mmHg 59%
    05:00 +12°C° 0 mm 2 mps 613 mmHg 59%
    06:00 +12°C° 0 mm 1 mps 613 mmHg 58%
    07:00 +14°C° 0 mm 2 mps 614 mmHg 53%
    08:00 +17°C° 0 mm 2 mps 615 mmHg 48%
    09:00 +19°C° 0 mm 2 mps 616 mmHg 43%
    10:00 +20°C° 0 mm 3 mps 616 mmHg 42%
    11:00 +20°C° 0 mm 3 mps 616 mmHg 41%
    12:00 +21°C° 0 mm 4 mps 616 mmHg 40%
    13:00 +21°C° 0.2 mm 4 mps 616 mmHg 42%
    14:00 +21°C° 0.2 mm 4 mps 616 mmHg 44%
    15:00 +20°C° 0.2 mm 4 mps 616 mmHg 46%
    16:00 +19°C° 0.3 mm 3 mps 616 mmHg 52%
    17:00 +18°C° 0.3 mm 3 mps 615 mmHg 58%
    18:00 +16°C° 0.3 mm 2 mps 615 mmHg 65%
    19:00 +15°C° 0.3 mm 2 mps 615 mmHg 70%
    20:00 +14°C° 0.3 mm 2 mps 615 mmHg 75%
    21:00 +12°C° 0.3 mm 1 mps 614 mmHg 80%
    22:00 +12°C° 0.1 mm 1 mps 614 mmHg 80%
    23:00 +12°C° 0.1 mm 1 mps 614 mmHg 80%
    Show more